Lapse_Rate
7.8 7.4 7.2 7.0 6.8 6.2 5.7 5.5 5.8 5.7 5.7 5.7 5.7 5.6 5.7 5.4 5.6 5.5 5.2 5.2 5.0 5.0 5.0 5.0 5.1 5.3 5.5 5.4 5.5 5.4 5.4 5.4 5.5 5.5 5.5 5.6 5.6 5.7 5.8 5.7 5.8 5.9 5.9 5.9 5.9 5.9 6.0 5.9 5.6
8.1 7.9 7.3 6.9 6.5 6.6 5.8 5.5 5.5 5.6 5.7 5.5 5.5 5.5 5.4 5.6 5.2 5.1 5.1 5.0 5.0 5.1 5.0 5.0 5.1 5.3 5.3 5.4 5.6 5.6 5.6 5.6 5.5 5.5 5.6 5.8 5.9 5.9 5.8 5.8 5.8 5.9 5.9 5.8 5.9 5.7 5.7 5.8 5.6
8.3 8.0 7.6 7.0 6.3 6.0 5.6 5.4 5.3 5.4 5.5 5.3 5.4 5.6 5.5 5.1 5.2 5.0 5.1 5.0 5.1 5.1 5.0 5.1 5.3 5.5 5.6 5.7 5.6 5.6 5.7 5.7 5.7 5.6 5.7 5.9 6.1 6.0 5.9 5.9 5.9 5.9 6.0 5.8 5.8 5.7 5.6 5.7 5.7
8.2 8.1 7.3 6.9 6.0 5.8 5.6 5.3 5.1 5.3 5.4 5.5 5.3 5.5 5.3 5.1 5.2 5.3 5.1 4.9 4.8 4.9 5.1 5.2 5.1 5.4 5.5 5.4 5.6 5.6 5.7 5.8 5.9 5.9 6.0 6.0 6.0 6.0 6.0 5.9 5.9 6.0 6.0 5.9 5.8 5.9 5.7 5.7 5.7
8.2 8.0 7.3 6.2 6.0 5.7 5.6 5.5 5.3 5.3 5.4 5.3 5.2 5.1 5.2 5.2 5.0 5.0 5.2 5.1 5.0 4.9 4.9 4.9 4.9 5.1 5.3 5.4 5.5 5.6 5.7 5.9 6.2 6.3 6.3 6.2 6.1 6.1 6.1 6.0 5.8 5.9 6.0 5.9 5.9 5.8 5.8 5.8 5.9
7.9 7.7 7.3 6.5 5.8 5.6 5.5 5.4 5.4 5.3 5.3 5.4 5.4 5.0 5.0 5.1 5.2 5.2 5.1 5.1 5.1 4.9 4.9 5.0 5.0 5.0 5.2 5.3 5.6 5.9 6.2 6.3 6.1 6.3 6.3 6.3 6.1 6.2 6.1 6.1 5.9 6.0 6.1 6.0 6.0 6.0 5.9 6.0 6.0
7.8 7.6 7.4 6.8 6.2 5.7 5.6 5.4 5.4 5.5 5.3 5.5 5.6 5.5 5.0 5.0 4.9 4.9 5.0 4.8 5.1 5.0 4.9 5.0 4.8 5.0 5.3 5.4 5.6 5.5 5.9 6.0 6.4 6.3 6.3 6.2 6.0 6.0 6.1 6.1 6.1 6.2 6.3 6.1 6.1 6.1 5.9 5.9 5.9
7.8 7.4 7.2 7.0 6.5 6.3 5.9 5.6 5.6 5.6 5.5 5.5 5.6 5.9 5.6 5.2 5.1 4.9 4.9 4.6 4.7 4.8 4.9 4.6 4.7 4.8 5.2 5.4 5.7 5.9 5.8 6.0 6.2 6.3 6.3 6.2 6.1 5.9 6.2 6.2 6.3 6.2 6.3 6.2 6.1 6.1 6.0 5.8 5.8
8.1 7.5 7.2 6.9 6.6 6.5 6.4 5.9 5.9 5.8 5.4 5.4 5.6 5.8 5.7 5.6 5.2 5.0 4.7 4.7 4.7 4.7 4.9 4.8 4.7 5.0 5.4 5.4 5.7 5.9 5.9 5.8 6.2 6.2 6.1 6.2 6.3 6.3 6.4 6.3 6.3 6.2 6.2 6.3 6.2 6.2 6.1 6.0 6.0
8.2 7.7 7.2 7.0 7.0 6.8 6.5 6.2 6.2 6.0 5.8 5.7 5.8 5.6 5.6 5.6 5.3 5.1 5.2 4.9 5.2 5.3 5.1 5.1 4.9 5.1 5.0 5.3 5.6 5.8 5.7 5.8 6.3 6.4 6.2 6.2 6.2 6.0 6.2 6.3 6.5 6.7 6.5 6.6 6.2 6.2 6.0 6.2 6.1
8.4 7.8 7.4 7.3 7.2 7.1 6.8 6.6 6.4 6.1 6.0 5.7 5.6 5.6 5.5 5.4 5.4 5.4 5.5 5.2 5.0 5.1 5.1 5.1 4.9 5.0 4.9 4.8 5.2 5.6 6.0 5.9 6.1 6.3 6.3 6.3 6.3 6.4 6.5 6.6 6.7 6.6 6.5 6.3 6.5 6.2 6.1 6.4 6.2
8.5 8.0 7.6 7.6 7.5 7.4 7.0 6.9 6.9 6.7 6.5 6.0 5.6 5.2 5.3 5.3 5.3 5.5 5.6 5.6 5.2 5.1 4.9 5.0 5.0 4.9 4.8 4.6 4.6 5.3 5.8 5.8 6.0 6.0 6.2 6.4 6.5 6.5 6.4 6.3 6.4 6.3 6.7 6.4 6.3 6.2 5.8 5.9 6.1
8.7 8.2 8.2 7.8 8.0 7.7 7.2 7.1 7.0 6.9 6.6 6.4 5.9 5.5 5.3 5.3 5.4 5.6 5.5 5.4 5.4 5.2 5.0 5.1 5.1 4.8 4.7 4.7 4.8 5.4 5.7 5.7 5.7 5.9 6.0 6.4 6.2 6.3 6.1 6.0 6.1 6.1 6.1 6.0 5.8 5.8 6.0 5.8 5.9
8.9 8.6 8.3 8.0 8.3 8.1 7.4 7.4 7.0 7.0 6.8 6.7 6.3 5.9 5.7 5.6 5.6 5.5 5.5 5.4 5.4 5.2 4.8 4.8 4.8 4.9 4.9 4.9 4.9 5.4 5.6 5.7 6.0 6.0 6.0 6.0 6.0 6.0 5.8 5.8 6.0 6.2 6.1 6.1 5.8 5.5 5.8 5.6 5.8
8.9 8.7 8.3 8.2 8.3 8.3 7.9 7.9 7.5 7.2 7.1 6.8 6.7 6.3 6.2 6.2 6.0 5.6 5.3 5.1 5.1 5.1 5.0 4.8 4.8 4.7 4.8 5.0 5.0 5.2 5.3 5.4 5.5 5.8 5.7 5.5 5.7 5.7 5.9 6.1 6.3 6.2 6.1 5.7 5.8 5.3 5.1 5.2 5.5
8.8 8.5 8.0 8.1 8.2 8.4 8.3 8.6 8.0 7.4 7.2 7.1 6.9 6.7 6.6 6.5 6.2 5.9 5.7 5.6 5.4 5.3 5.3 5.0 4.9 5.2 5.0 5.0 5.1 5.2 5.3 5.5 5.6 5.7 5.6 5.6 5.6 5.7 5.7 6.0 6.1 6.2 5.8 5.6 5.7 5.7 5.8 5.6 5.5
8.6 8.3 8.2 8.0 8.2 8.3 8.5 8.7 8.8 8.2 7.4 7.1 7.0 7.0 6.9 6.7 6.5 6.5 6.3 6.0 5.6 5.4 5.3 5.2 5.1 5.2 5.0 5.0 5.0 5.1 5.2 5.2 5.5 5.6 5.5 5.6 5.8 5.6 6.0 5.7 5.8 5.9 5.8 5.6 5.8 6.0 5.7 5.7 5.7
8.4 8.4 8.3 8.3 8.4 8.3 8.6 8.7 8.8 8.6 8.3 7.8 7.3 7.2 7.0 6.9 6.7 6.5 6.4 6.3 6.1 6.0 5.6 5.4 5.4 5.4 5.5 5.4 5.6 5.6 5.5 5.4 5.5 5.5 5.4 5.3 5.2 5.2 5.3 5.7 5.6 5.6 5.6 5.7 5.9 5.7 5.6 5.6 5.6
8.7 8.4 8.3 8.4 8.2 8.2 8.3 8.5 8.6 8.8 8.8 8.6 8.1 7.7 7.2 7.0 6.8 6.7 6.6 6.5 6.4 6.4 6.4 6.2 6.0 5.7 5.6 5.7 5.7 5.6 5.3 5.2 5.4 5.4 5.4 5.3 5.2 5.3 5.5 5.7 5.6 5.7 5.6 5.6 5.8 5.6 5.5 5.7 5.6
8.6 8.5 8.5 8.5 8.2 8.3 8.3 8.1 8.3 8.5 8.6 8.6 8.4 8.2 7.9 7.7 7.1 6.8 6.6 6.5 6.5 6.5 6.5 6.3 6.1 6.2 6.2 6.0 5.8 5.7 5.5 5.5 5.7 5.7 5.7 5.7 5.4 5.7 5.7 5.6 5.5 5.9 6.0 5.8 5.8 5.7 5.8 5.9 6.0
8.5 8.6 8.7 8.5 8.4 8.3 8.3 8.0 8.4 8.5 8.4 8.4 8.5 8.1 8.2 7.7 7.3 7.0 6.8 6.7 6.8 6.8 6.6 6.4 6.3 6.1 6.1 6.0 6.1 6.1 6.4 6.4 6.0 5.7 5.8 5.7 6.2 6.2 6.1 6.0 5.9 5.8 5.8 5.9 6.1 6.1 6.2 6.1 5.9
8.6 8.7 8.4 8.7 8.5 8.3 8.3 9.1 8.8 8.6 8.6 8.6 8.6 8.5 8.1 8.0 7.7 7.5 7.4 7.2 6.9 7.0 7.1 7.0 6.9 6.6 6.7 6.8 6.8 6.6 6.4 6.4 6.1 5.7 6.0 6.0 6.1 6.8 6.8 6.4 6.2 6.0 5.9 5.9 6.0 6.0 5.9 5.9 6.0
8.7 8.7 9.0 8.8 7.8 7.9 8.0 8.4 9.1 8.8 8.6 8.6 8.7 8.7 8.4 8.1 7.7 7.5 7.4 7.2 7.1 7.4 7.5 7.6 7.2 7.2 7.1 7.0 7.0 7.2 6.7 6.4 6.3 6.6 6.5 6.5 6.1 6.0 6.3 6.8 6.7 6.4 6.2 6.3 6.5 6.6 6.7 6.4 6.1
8.8 9.0 9.0 8.5 7.6 8.2 7.9 8.3 9.2 9.3 9.5 9.2 8.8 8.7 8.6 8.3 7.9 7.8 7.7 7.5 7.3 7.5 7.8 7.7 7.4 7.1 7.2 7.1 7.2 6.8 6.6 6.8 6.8 6.7 6.7 6.8 6.5 6.4 6.0 6.0 6.1 6.4 6.5 6.6 6.4 6.2 6.2 6.2 5.9
8.5 8.8 8.5 8.5 8.5 8.8 8.1 7.8 8.9 9.3 9.5 9.2 9.2 9.1 8.9 8.6 8.0 7.7 7.6 7.6 7.7 7.7 7.6 7.6 7.3 7.4 7.1 6.8 6.8 6.9 6.8 6.8 6.8 6.6 6.6 6.7 6.7 6.5 6.0 5.7 6.3 6.4 6.2 6.3 6.3 6.1 5.7 5.8 5.9
8.9 8.8 8.8 8.4 8.5 8.7 7.7 7.8 8.8 9.2 9.2 9.3 9.4 9.2 8.8 8.5 8.1 8.1 7.7 7.9 7.8 7.7 7.7 7.7 7.6 7.3 7.1 7.1 7.1 7.0 6.8 6.8 6.6 6.4 6.5 6.3 6.0 6.0 6.0 5.7 5.8 6.0 5.9 5.9 6.0 5.9 6.1 6.0 5.9
8.6 8.3 8.7 8.6 7.9 8.2 7.8 8.6 8.8 9.1 9.2 9.3 9.5 9.2 9.2 8.9 8.4 8.4 8.2 7.8 7.9 7.8 7.8 7.7 7.6 7.5 7.4 7.2 7.2 7.2 7.1 7.0 6.7 6.2 6.2 6.3 6.2 6.0 5.9 5.9 5.8 5.6 5.6 5.7 5.8 5.9 6.0 5.7 5.6
8.8 9.0 8.6 8.3 7.9 8.3 7.7 8.0 8.9 9.2 9.2 9.3 9.5 9.4 9.2 8.9 8.6 8.6 8.6 8.3 8.0 7.7 7.7 7.6 7.6 7.5 7.4 7.4 7.5 7.2 7.0 6.8 6.8 6.6 6.5 6.4 6.0 5.9 5.8 5.8 5.7 5.7 6.0 6.2 6.1 5.9 6.1 6.0 5.9
8.1 8.3 8.5 8.5 8.4 9.1 8.8 8.4 8.9 9.2 9.2 9.3 9.2 9.3 8.9 8.8 8.7 8.6 8.6 8.4 8.2 7.9 7.7 7.7 7.4 7.4 7.5 7.3 7.2 7.0 6.8 6.7 6.5 6.3 6.4 6.2 6.1 6.1 6.2 6.1 6.0 6.0 6.3 6.3 6.2 6.1 6.1 6.1 6.1
8.8 9.0 8.9 8.9 7.7 8.2 8.5 8.7 8.8 9.1 9.1 9.2 9.1 9.0 8.9 8.8 8.7 8.8 8.6 8.4 8.4 8.4 8.3 7.9 7.5 7.4 7.4 7.4 7.2 6.9 6.7 6.6 6.3 6.1 6.2 6.1 6.1 6.1 6.2 6.2 6.2 6.4 6.3 6.5 6.4 6.2 6.0 6.0 5.9
Wind_Speed
8 8 3 3 1 3 4 5 2 5 3 6 5 6 9 8 4 6 6 7 10 6 11 18 21 22 23 22 23 21 20 19 19 18 17 16 15 17 15 15 15 16 15 14 14 14 14 13 12
7 5 2 1 4 7 5 6 9 10 10 9 10 8 8 5 5 8 7 6 12 9 14 18 20 21 21 21 21 20 20 20 19 17 16 16 16 16 16 15 13 14 14 13 14 13 13 13 12
8 3 2 3 3 7 4 7 10 8 3 4 4 6 4 4 10 4 10 9 14 12 16 18 20 19 19 19 19 19 19 19 18 16 17 15 15 15 15 13 14 14 13 13 13 13 11 11 9
4 3 1 7 8 6 4 6 7 5 7 7 8 7 6 7 3 9 12 11 11 12 14 17 17 19 18 17 17 18 19 17 17 17 16 14 12 15 13 14 14 15 12 11 11 10 9 8 6
2 1 4 5 8 5 8 7 3 4 5 5 2 4 4 5 16 14 12 9 13 11 13 13 17 17 17 17 15 16 16 16 16 16 16 14 12 13 14 13 13 12 10 9 8 8 7 6 5
1 0 3 4 5 4 4 4 6 11 12 14 12 6 4 12 15 12 11 11 14 9 10 13 15 17 16 17 17 16 14 14 14 15 15 14 13 12 11 11 11 10 8 7 7 5 5 5 4
1 1 4 5 6 3 5 7 9 10 9 8 8 4 4 11 11 11 12 12 14 12 11 10 11 14 15 16 17 17 15 14 13 15 15 13 11 9 10 9 7 6 5 4 4 4 4 4 5
2 1 4 3 4 4 8 5 7 6 12 11 7 6 6 8 12 12 12 12 12 8 11 9 11 11 10 14 17 16 16 14 15 15 13 11 9 7 7 4 5 3 2 3 2 2 4 4 5
1 2 2 2 5 8 12 5 6 5 7 5 3 10 13 15 13 12 12 11 8 5 5 4 5 9 11 10 14 14 13 13 13 11 9 8 6 5 4 4 2 2 2 3 5 5 6 7 5
2 1 3 4 8 11 9 5 7 4 6 6 14 17 17 16 15 14 14 11 13 12 5 7 6 7 8 8 10 10 10 9 8 7 6 3 3 2 3 2 4 3 3 3 4 7 7 5 5
1 3 5 9 13 15 9 9 3 11 5 6 17 18 16 15 14 15 14 15 16 15 10 6 8 7 7 4 10 6 7 5 7 8 5 4 1 1 2 3 3 3 3 3 3 3 4 5 6
1 5 7 10 10 7 7 7 8 3 6 14 15 16 14 15 14 15 15 14 13 12 10 9 8 4 4 4 6 6 4 5 7 4 4 2 2 2 2 2 3 4 3 6 4 3 3 4 3
3 7 10 13 15 12 10 9 8 12 14 14 14 14 13 13 13 12 12 14 13 12 11 10 7 5 3 3 4 3 4 4 4 3 3 3 4 4 5 5 4 5 5 4 4 4 6 6 7
8 17 15 10 12 9 11 5 4 7 13 13 12 12 12 13 13 12 14 14 14 12 12 10 8 6 2 2 2 1 2 3 3 2 4 4 6 6 5 5 4 4 4 4 5 3 4 5 8
15 16 12 8 7 3 7 8 6 12 12 12 11 9 10 11 13 13 13 14 14 12 13 11 10 10 7 7 5 4 5 4 4 5 5 6 7 8 8 7 6 4 5 3 4 3 4 4 7
5 7 6 6 4 6 7 5 8 11 11 11 10 9 10 11 11 11 12 13 13 13 13 12 10 10 10 8 6 6 6 6 6 7 7 9 10 10 9 7 7 5 6 1 2 4 4 5 5
2 6 5 6 7 4 4 4 10 13 10 10 10 10 10 10 12 13 12 12 13 14 13 12 11 11 10 8 6 7 7 8 9 9 9 8 10 9 11 5 7 6 7 1 0 3 3 4 4
9 5 5 6 11 8 7 3 11 15 13 11 11 11 12 12 14 12 12 11 11 11 12 11 11 12 10 7 6 6 7 9 9 9 9 10 8 7 4 5 6 6 4 0 2 4 5 5 6
8 5 9 11 8 10 12 5 9 14 14 12 11 12 13 13 10 10 11 12 11 11 12 13 12 11 7 7 6 6 7 6 6 7 7 8 8 7 4 4 4 4 5 3 2 3 4 4 5
7 5 7 3 8 13 8 12 6 14 17 16 14 14 14 13 11 11 11 12 14 13 13 12 12 11 10 8 7 5 3 3 4 6 6 7 7 7 6 7 5 5 4 4 2 1 1 2 2
6 6 4 5 6 4 6 8 9 10 13 15 16 15 15 16 15 13 14 15 14 14 13 12 12 13 12 12 7 6 5 5 6 5 4 7 7 7 7 8 7 5 4 4 4 3 2 1 1
10 10 7 8 8 3 9 1 7 13 16 16 18 18 18 19 16 14 15 15 16 15 12 13 14 14 13 12 10 11 9 9 7 6 5 4 8 7 7 8 8 7 5 4 4 4 5 4 4
3 4 7 7 8 5 8 4 3 6 15 21 22 22 21 20 18 17 17 17 17 15 14 14 13 13 13 12 13 10 11 10 8 7 7 6 5 8 7 8 8 6 5 5 6 6 7 6 4
14 10 12 7 5 4 6 6 3 7 15 20 20 21 22 21 19 18 18 16 15 16 15 14 14 14 13 13 13 13 13 12 9 8 6 5 4 4 7 7 8 8 6 6 6 6 7 5 6
7 8 4 4 4 1 1 7 11 11 11 11 20 25 24 22 19 18 19 18 17 17 17 15 15 15 15 15 13 15 15 13 11 11 8 7 5 2 5 5 4 4 5 4 5 4 3 3 4
13 9 4 4 4 3 3 6 7 4 5 8 16 17 20 20 19 20 21 20 19 20 20 19 16 16 15 15 16 11 13 10 10 10 8 7 6 4 3 4 5 5 4 5 4 4 5 5 6
6 7 2 6 2 3 4 5 12 6 8 6 12 13 16 20 20 21 21 21 19 19 20 21 17 16 16 16 12 11 12 12 12 12 9 6 3 1 2 3 4 3 4 6 7 7 7 7 8
6 12 6 1 7 6 4 4 5 4 4 1 7 12 14 14 17 18 20 20 19 19 18 19 18 17 16 14 12 11 11 12 12 9 7 5 2 2 4 4 5 6 7 8 8 8 7 7 7
6 5 5 4 2 9 6 5 6 8 5 7 2 9 11 13 15 17 17 16 17 16 16 16 16 15 12 11 11 11 9 8 7 6 4 3 2 2 5 6 6 7 8 7 5 5 6 7 8
9 12 10 7 5 1 4 7 4 8 10 7 5 6 9 11 13 14 14 15 15 16 15 15 13 11 9 8 8 7 6 3 3 2 1 1 4 4 6 6 6 6 4 5 5 6 4 8 9
Wind_Direction
180 153 184 222 188 74 57 43 33 74 81 57 84 94 93 47 27 109 123 115 116 113 123 106 103 103 105 101 103 105 108 110 107 107 106 101 105 101 97 95 90 85 87 86 86 86 86 87 81
159 167 216 265 40 67 70 33 63 83 118 104 77 89 64 65 60 99 109 102 125 133 114 106 102 102 104 103 107 109 109 108 108 108 107 102 96 98 96 95 95 95 90 95 96 92 92 93 91
168 230 278 74 58 42 43 79 110 101 84 59 107 52 60 66 101 100 110 121 119 108 105 104 105 104 101 106 108 108 106 108 108 107 103 98 100 100 100 102 96 92 96 89 84 88 87 86 88
176 183 117 54 60 56 40 119 116 116 83 63 105 67 82 31 66 115 125 120 112 105 97 105 107 109 106 103 105 108 109 110 109 106 102 101 95 96 95 97 97 95 91 88 85 84 81 77 67
203 216 68 74 59 61 83 98 142 72 85 90 103 75 69 68 108 113 107 93 111 99 109 104 102 105 107 108 104 101 107 108 108 103 103 101 89 92 87 87 89 89 83 77 73 75 62 51 39
124 289 76 60 92 98 75 73 107 104 103 105 89 86 71 120 115 101 93 91 95 85 86 90 96 100 106 106 104 99 98 98 100 102 103 103 95 91 91 87 86 85 79 72 72 64 52 25 22
19 78 133 123 122 122 110 103 108 109 109 82 128 92 83 100 106 98 91 86 75 55 71 62 85 99 101 99 98 100 95 91 91 88 88 92 92 90 84 86 85 78 67 69 59 36 25 14 351
45 319 138 104 142 102 136 112 104 96 88 117 137 146 144 131 119 103 97 90 79 52 48 35 62 61 96 105 95 93 90 95 88 83 82 79 80 83 88 91 73 48 24 5 5 345 329 329 329
147 226 126 103 146 132 147 141 69 83 106 67 68 116 125 135 134 117 110 101 100 98 70 65 94 88 87 79 89 94 94 86 80 76 71 80 76 70 79 59 41 357 335 347 337 327 323 316 313
282 266 70 41 110 134 134 114 123 130 111 93 100 110 132 145 152 147 145 133 139 133 198 173 143 108 108 87 78 93 86 79 75 68 45 42 67 40 345 8 345 308 317 331 328 333 341 327 331
80 27 92 51 101 123 115 115 112 136 122 151 143 139 148 156 163 164 161 159 161 171 179 170 152 138 113 114 94 76 90 88 78 61 43 55 56 1 340 342 314 287 282 296 326 351 350 342 341
303 73 82 119 103 107 100 115 114 31 106 138 143 145 152 164 175 176 170 171 170 176 171 180 166 142 122 96 75 81 80 63 66 64 38 7 331 302 328 299 316 296 19 341 353 339 312 317 330
57 91 78 110 93 95 106 87 98 98 118 133 138 153 165 175 180 179 179 182 181 183 184 185 186 185 152 111 89 53 49 34 30 23 18 7 328 335 317 306 308 328 346 344 335 332 345 332 326
108 105 106 101 101 129 120 106 162 132 133 141 161 168 174 185 186 179 188 188 191 191 194 188 203 203 181 196 163 222 13 350 1 344 348 337 321 298 287 291 303 302 294 287 292 302 320 329 326
115 99 99 98 121 116 126 66 78 147 154 156 173 182 186 195 198 200 197 197 197 198 199 199 205 210 204 221 212 223 249 294 306 317 308 300 290 287 285 269 264 279 264 279 287 269 280 309 330
105 107 143 166 154 165 310 123 145 165 170 170 181 196 208 213 213 213 205 208 208 211 210 208 207 212 220 229 229 243 251 264 283 299 297 296 297 293 274 263 261 268 265 228 276 305 323 326 334
37 170 150 166 203 177 273 126 166 174 190 192 193 199 210 219 218 218 214 212 210 215 220 221 216 220 223 241 253 270 283 287 295 291 294 304 301 303 290 302 280 277 280 67 58 296 342 321 342
180 155 184 192 193 197 200 192 167 184 196 209 203 206 210 216 222 213 216 221 220 221 224 226 223 224 223 232 249 262 269 270 274 282 286 298 315 317 306 297 297 300 294 187 271 326 341 318 346
163 177 198 219 191 192 211 223 190 192 204 214 216 216 219 220 214 204 206 209 215 218 218 222 224 229 226 230 244 253 257 272 277 281 285 282 291 286 263 266 285 284 293 326 349 347 338 6 7
160 185 226 227 179 206 202 229 212 198 211 212 218 223 223 223 211 203 200 202 207 212 217 218 221 222 218 218 221 232 248 282 282 279 283 282 277 270 273 273 270 262 263 257 245 255 329 348 351
196 199 208 231 113 165 175 233 217 210 215 220 226 226 230 226 212 201 201 206 211 214 211 214 218 218 218 218 223 235 252 252 255 249 254 236 237 268 252 246 240 240 237 233 227 231 218 294 231
227 206 195 188 180 230 201 259 208 205 210 217 223 226 226 224 219 205 202 207 210 218 212 215 214 212 215 210 219 222 233 245 246 241 225 239 244 232 232 240 225 225 223 223 226 218 229 212 258
211 138 193 207 191 182 192 253 124 198 224 218 218 221 225 226 217 206 206 209 212 210 210 216 219 221 216 209 217 221 235 247 253 245 256 249 241 243 240 218 226 234 243 251 241 233 220 216 247
143 104 87 106 173 220 177 240 219 194 217 219 219 215 223 221 219 211 210 207 212 210 211 216 215 223 218 217 224 227 233 240 251 257 263 270 275 258 235 217 222 229 221 231 246 248 247 249 259
171 168 170 167 190 148 324 205 261 255 241 222 214 213 212 216 211 205 206 206 210 208 213 214 216 221 217 217 217 224 236 242 249 259 267 258 257 237 240 221 201 218 224 230 261 263 274 287 295
188 203 210 173 185 158 128 219 243 270 296 242 227 219 212 215 205 201 205 209 206 205 210 212 216 220 221 222 225 219 229 237 247 251 255 260 260 268 305 268 270 262 252 279 269 268 276 271 263
168 191 194 106 65 204 173 254 277 262 260 283 215 201 204 208 207 199 203 209 208 207 210 212 216 217 221 221 223 220 224 229 239 243 243 258 227 202 195 236 251 282 287 292 290 280 281 286 286
210 145 167 204 160 210 186 271 253 282 326 85 167 195 204 205 203 198 204 206 208 209 212 214 217 222 219 223 223 226 225 228 237 241 232 225 203 213 252 287 309 298 289 288 292 289 288 289 287
154 173 73 116 301 209 220 230 219 247 292 311 201 198 202 202 200 201 204 204 207 209 211 216 218 224 221 218 222 229 237 244 252 237 186 174 171 279 303 307 311 310 312 305 294 299 301 294 295
204 185 179 199 191 200 245 220 199 251 274 265 260 214 204 205 200 199 198 195 198 204 207 213 218 218 219 216 213 223 228 204 203 170 54 344 319 315 310 309 318 312 307 303 303 300 301 301 304